{"data":{"norad_id":64146,"epoch":"2026-05-25T02:18:13.637952Z","epoch_age_seconds":63802,"freshness":"FRESH","line1":"1 64146U 25112A   26145.09599118 -.00006987  00000+0 -48088-3 0  9994","line2":"2 64146  97.4514 196.4363 0001384 208.0989 152.0164 15.05634197 54804","mean_motion":15.05634197,"eccentricity":0.0001384,"inclination_deg":97.4514,"raan_deg":196.4363,"arg_perigee_deg":208.0989,"mean_anomaly_deg":152.0164,"bstar":-0.00048088,"rev_number":5480,"period_min":95.640760741834,"perigee_km":548.60083538546,"apogee_km":550.51842181226,"semimajor_km":6927.6966285989,"source":"CELESTRAK","updated_at":"2026-05-25T13:38:20.301189Z"}}